Location: Contre
(49.7477°N, 2.0963°E)
Time: 12:40:27
(UTC+00:00)

Meteor 2-12 Rocket - Pass Details

Date: 08 August 2024
Orbit: 936 x 956 km, 82.5° (Epoch: 14 September)

Event Time Altitude Azimuth Distance (km) Brightness Sun altitude
Rises 01:45:45 0° 344° (NNW) 3,611 8.2 -20.0°
Reaches altitude 10° 01:48:22 10° 338° (NNW) 2,665 7.3 -19.8°
Maximum altitude 01:53:57 40° 271° (W) 1,361 5.0 -19.4°
Enters shadow 01:55:58 31° 231° (SW) 1,590 5.1 -19.2°
